Weather History for Kingsville NAS, TX

Change the Weather History Date:

Tuesday, May 7, 2013

  Actual Average Record
Temperature  
Mean Temperature 72 °F -  
Max Temperature 86 °F 85 °F 98 °F (2008)
Min Temperature 60 °F 68 °F 59 °F (1999)
Cooling Degree Days 7    
Growing Degree Days 22 (Base 50)    
Moisture  
Dew Point 61 °F    
Average Humidity 72    
Maximum Humidity 90    
Minimum Humidity 47    
Precipitation  
Precipitation 0.00 in - - ()
Sea Level Pressure  
Sea Level Pressure 30.00 in    
Wind  
Wind Speed 6 mph (ESE)    
Max Wind Speed 20 mph    
Max Gust Speed 23 mph    
Visibility 10 miles    
Events      
Averages and records for this station are not official NWS values.
T = Trace of Precipitation, MM = Missing Value Source: NWS Daily Summary

Daily Weather History Graph

Daily Weather History Graph

Search for Another Location

Airport:

Trip Planner

Search our weather history database for the weather conditions in past years. The results will help you decide how hot, cold, wet, or windy it might be!

Date:

Astronomy

May. 07, 2013 Rise Set
Actual Time 6:47 AM CDT 8:08 PM CDT
Civil Twilight 6:22 AM CDT 8:33 PM CDT
Nautical Twilight 5:52 AM CDT 9:03 PM CDT
Astronomical Twilight 5:21 AM CDT 9:34 PM CDT
Moon 5:10 AM CDT (5/7) 6:18 PM CDT (5/7)
Length of Visible Light 14h 11m
Length of Day
13h 21m
Waning Crescent, 5% of the Moon is Illuminated
May 7
Waning Crescent
May 9
New
May 17
First Quarter
May 24
Full
May 31
Last Quarter

Hourly Weather History & Observations

Time (CDT) Temp. Heat Index Dew Point Humidity Pressure Visibility Wind Dir Wind Speed Gust Speed Precip Events Conditions
12:56 AM 64.9 °F - 59.0 °F 81% 30.02 in 10.0 mi SSE 3.5 mph - N/A   Clear
1:56 AM 62.1 °F - 57.0 °F 84% 30.00 in 10.0 mi South 3.5 mph - N/A   Clear
2:56 AM 62.1 °F - 57.9 °F 86% 29.99 in 10.0 mi Calm Calm - N/A   Clear
3:56 AM 60.1 °F - 55.9 °F 86% 30.00 in 10.0 mi Calm Calm - N/A   Clear
4:27 AM 60.8 °F - 55.4 °F 82% 30.01 in 10.0 mi NNE 4.6 mph - N/A   Mostly Cloudy
4:42 AM 60.8 °F - 55.4 °F 82% 30.01 in 10.0 mi NNE 5.8 mph - N/A   Scattered Clouds
4:56 AM 60.1 °F - 57.0 °F 90% 30.01 in 10.0 mi NNE 4.6 mph - N/A   Partly Cloudy
5:20 AM 60.8 °F - 57.2 °F 88% 30.02 in 10.0 mi NNE 5.8 mph - N/A   Mostly Cloudy
5:56 AM 63.0 °F - 57.9 °F 84% 30.01 in 10.0 mi NE 4.6 mph - N/A   Mostly Cloudy
6:56 AM 62.1 °F - 57.9 °F 86% 30.01 in 10.0 mi NE 6.9 mph - N/A   Mostly Cloudy
7:56 AM 66.0 °F - 61.0 °F 84% 30.04 in 10.0 mi ENE 5.8 mph - N/A   Scattered Clouds
8:56 AM 73.9 °F - 64.0 °F 71% 30.05 in 10.0 mi ESE 8.1 mph - N/A   Scattered Clouds
9:56 AM 77.0 °F - 62.1 °F 60% 30.06 in 10.0 mi East 8.1 mph - N/A   Mostly Cloudy
10:56 AM 79.0 °F - 62.1 °F 56% 30.06 in 10.0 mi Variable 5.8 mph - N/A   Mostly Cloudy
11:56 AM 81.0 °F 82.2 °F 63.0 °F 54% 30.04 in 10.0 mi SE 15.0 mph 19.6 mph N/A   Mostly Cloudy
12:56 PM 81.0 °F 81.9 °F 62.1 °F 52% 30.03 in 10.0 mi South 9.2 mph - N/A   Mostly Cloudy
1:56 PM 82.9 °F 83.7 °F 62.1 °F 49% 30.02 in 10.0 mi South 11.5 mph 16.1 mph N/A   Mostly Cloudy
2:56 PM 84.0 °F 84.5 °F 62.1 °F 47% 29.99 in 10.0 mi SSE 8.1 mph - N/A   Mostly Cloudy
3:56 PM 84.0 °F 84.5 °F 62.1 °F 47% 29.97 in 10.0 mi SSE 10.4 mph - N/A   Mostly Cloudy
4:56 PM 82.9 °F 84.0 °F 63.0 °F 51% 29.96 in 10.0 mi SSE 13.8 mph - N/A   Mostly Cloudy
5:56 PM 79.0 °F - 64.0 °F 60% 29.94 in 10.0 mi ESE 19.6 mph 23.0 mph N/A   Mostly Cloudy
6:56 PM 77.0 °F - 64.0 °F 64% 29.95 in 10.0 mi SE 13.8 mph - N/A   Mostly Cloudy
7:56 PM 73.9 °F - 64.0 °F 71% 29.95 in 10.0 mi SE 11.5 mph - N/A   Mostly Cloudy
8:56 PM 73.0 °F - 64.0 °F 73% 29.97 in 10.0 mi SE 12.7 mph - N/A   Mostly Cloudy
9:56 PM 72.0 °F - 64.9 °F 78% 29.97 in 10.0 mi SE 11.5 mph - N/A   Mostly Cloudy
10:56 PM 72.0 °F - 66.0 °F 81% 29.99 in 10.0 mi SSE 10.4 mph - N/A   Mostly Cloudy
11:56 PM 71.1 °F - 66.0 °F 84% 29.98 in 10.0 mi South 16.1 mph - N/A   Mostly Cloudy